Regional Weather Roundup
Issued by NWS

Home | Current Version | Previous Version | Graphics & Text | Print | Product List | Glossary Off
Versions: 1 2 3 4 5 6 7 8 9 10 11 12 13 14 15 16 17 18 19 20 21 22 23 24 25 26 27 28 29 30 31 32 33 34 35 36 37 38 39 40 41 42 43 44 45 46 47 48 49 50

000
ASUS45 KBOI 212010
RWRID
WEATHER ROUNDUP FOR IDAHO
NATIONAL WEATHER SERVICE BOISE ID
200 PM MDT TUE OCT 21 2014

NOTE: "FAIR" INDICATES FEW OR NO CLOUDS BELOW 12000 FEET
WITH NO SIGNIFICANT WEATHER AND/OR OBSTRUCTIONS TO VISIBILITY

IDZ012-014-212100-
SOUTHWEST IDAHO


CITY           SKY/WX    TMP DP  RH WIND       PRES   REMARKS
BOISE          PTSUNNY   55  44  66 N6        30.04F
CALDWELL       MOSUNNY   57  34  41 W10G20    30.05S
MOUNTAIN HOME  MOSUNNY   55  44  65 NW8       30.05R
$$

IDZ016-017-212100-
SOUTHCENTRAL IDAHO


CITY           SKY/WX    TMP DP  RH WIND       PRES   REMARKS
BURLEY         LGT RAIN  52  37  56 W21G36    30.04R
JEROME         MOSUNNY   51  38  60 W22G29    30.05S
TWIN FALLS     MOSUNNY   55  36  48 W26G33    30.05S
$$

IDZ019>023-212100-
SOUTHEAST IDAHO


CITY           SKY/WX    TMP DP  RH WIND       PRES   REMARKS
IDAHO FALLS    PTSUNNY   52  37  56 SW26G38   29.99F
POCATELLO      PTSUNNY   51  36  56 W17       30.05S
REXBURG        PTSUNNY   48  36  63 S18       30.00F
$$

IDZ006-010-011-018-031-032-212100-
CENTRAL IDAHO MOUNTAINS


CITY           SKY/WX    TMP DP  RH WIND       PRES   REMARKS
MCCALL         LGT RAIN  41  38  89 S5        30.00R
HAILEY         PTSUNNY   46  37  71 S6        30.03F
STANLEY          N/A     40  36  86 S6        30.02R
SALMON         CLOUDY    45  39  81 CALM      29.97R
CHALLIS        CLOUDY    45  36  70 E3        29.98R
$$

IDZ002-004-006-007-026-212100-
NORTHERN IDAHO


CITY           SKY/WX    TMP DP  RH WIND       PRES   REMARKS
LEWISTON       CLOUDY    61  43  51 W6        29.95S
LOWELL           N/A     53  50  89 CALM      29.99S
COEUR D`ALENE  CLOUDY    54  43  66 CALM      29.92S
MULLAN PASS    FOG       35  35 100 VRB6      29.92R VSB 1/4 WCI  30
$$



USA.gov is the U.S. government's official web portal to all federal, state and local government web resources and services.